This is the latest recevied weather packets stored in our database for station/object KC4GS-13. If no packets are shown the sender has not sent any weather packets the latest 10 day(s).
| Time | Temp. | Humidity | Pressure | Rain* | Wind** | Luminosity | Snow |
|---|---|---|---|---|---|---|---|
| 1787762419 | 30° C | 66% | 1019 hPa | 0 mm | - | 172 W/m² | - |
| 1787762116 | 29.44° C | 67% | 1019 hPa | 0 mm | - | 337 W/m² | - |
| 1787761811 | 30° C | 67% | 1019.1 hPa | 0 mm | - | 137 W/m² | - |
| 1787761506 | 30° C | 65% | 1018.9 hPa | 0 mm | - | 220 W/m² | - |
| 1787761201 | 30° C | 65% | 1018.9 hPa | 0 mm | - | 160 W/m² | - |
| 1787760895 | 30.56° C | 64% | 1018.8 hPa | 0 mm | - | 131 W/m² | - |
| 1787760593 | 30.56° C | 66% | 1019.1 hPa | 0 mm | - | 232 W/m² | - |
| 1787760292 | 30° C | 66% | 1019.1 hPa | 0 mm | - | 561 W/m² | - |
| 1787759990 | 30° C | 66% | 1019.1 hPa | 0 mm | - | 246 W/m² | - |
| 1787759685 | 30° C | 66% | 1019.2 hPa | 0 mm | - | 466 W/m² | - |
| 1787759380 | 30.56° C | 65% | 1019.1 hPa | 0 mm | - | 198 W/m² | - |
| 1787759076 | 30.56° C | 66% | 1019.3 hPa | 0 mm | - | 325 W/m² | - |
| 1787758775 | 30° C | 67% | 1019.3 hPa | 0 mm | - | 359 W/m² | - |
| 1787758471 | 29.44° C | 67% | 1019.7 hPa | 0 mm | - | 473 W/m² | - |
| 1787758169 | 28.89° C | 69% | 1019.5 hPa | 0 mm | - | 208 W/m² | - |
| 1787757865 | 30° C | 68% | 1019.7 hPa | 0 mm | - | 442 W/m² | - |
| 1787757561 | 29.44° C | 68% | 1019.4 hPa | 0 mm | - | 300 W/m² | - |
| 1787757260 | 29.44° C | 67% | 1019.6 hPa | 0 mm | - | 779 W/m² | - |
| 1787756959 | 29.44° C | 69% | 1019.6 hPa | 0 mm | - | 752 W/m² | - |
| 1787756655 | 28.89° C | 69% | 1019.5 hPa | 0 mm | - | 731 W/m² | - |
| 1787756354 | 28.33° C | 71% | 1019.5 hPa | 0 mm | - | 658 W/m² | - |
| 1787756049 | 27.78° C | 72% | 1019.5 hPa | 0 mm | - | 276 W/m² | - |
| 1787755743 | 27.78° C | 72% | 1019.5 hPa | 0 mm | - | 105 W/m² | - |
| 1787755438 | 27.78° C | 73% | 1019.5 hPa | 0 mm | - | 515 W/m² | - |
| 1787755137 | 27.78° C | 73% | 1019.8 hPa | 0 mm | - | 134 W/m² | - |
* Rain latest hour (hover to see other rain measurements)
** Current wind speed in m/s (hover to see current wind gust speed)